Weather History for Presque Isle, ME

Change the Weather History Date:

Sunday, July 21, 2013

  Actual Average Record
Temperature  
Mean Temperature 60 °F -  
Max Temperature 71 °F 77 °F 94 °F (1991)
Min Temperature 48 °F 55 °F 42 °F (1966)
Degree Days  
Heating Degree Days 6    
Growing Degree Days 10 (Base 50)    
Moisture  
Dew Point 44 °F    
Average Humidity 59    
Maximum Humidity 88    
Minimum Humidity 33    
Precipitation  
Precipitation 0.00 in - - ()
Sea Level Pressure  
Sea Level Pressure 29.84 in    
Wind  
Wind Speed 6 mph (WNW)    
Max Wind Speed 14 mph    
Max Gust Speed 21 mph    
Visibility 10 miles    
Events      
Averages and records for this station are not official NWS values.
T = Trace of Precipitation, MM = Missing Value Source: NWS Daily Summary

Daily Weather History Graph

Daily Weather History Graph

Search for Another Location

Airport:

Trip Planner

Search our weather history database for the weather conditions in past years. The results will help you decide how hot, cold, wet, or windy it might be!

Date:

Astronomy

Jul. 21, 2013 Rise Set
Actual Time 4:59 AM EDT 8:16 PM EDT
Civil Twilight 4:23 AM EDT 8:53 PM EDT
Nautical Twilight 3:34 AM EDT 9:41 PM EDT
Astronomical Twilight 2:34 AM EDT 10:41 PM EDT
Moon 7:08 PM EDT (7/21) 3:43 AM EDT (7/21)
Length of Visible Light 16h 30m
Length of Day
15h 16m
Waxing Gibbous, 98% of the Moon is Illuminated
Jul 21
Waxing Gibbous
Jul 22
Full
Jul 29
Last Quarter
Aug 6
New
Aug 14
First Quarter

Hourly Weather History & Observations

Time (EDT) Temp. Dew Point Humidity Pressure Visibility Wind Dir Wind Speed Gust Speed Precip Events Conditions
12:15 AM 53.6 °F 50.0 °F 88% 29.70 in 10.0 mi Calm Calm - N/A   Clear
12:35 AM 53.6 °F 48.2 °F 82% 29.70 in 10.0 mi WNW 5.8 mph - N/A   Clear
12:55 AM 55.4 °F 48.2 °F 77% 29.70 in 10.0 mi WNW 8.1 mph - N/A   Clear
1:15 AM 55.4 °F 48.2 °F 77% 29.71 in 10.0 mi NW 6.9 mph - N/A   Clear
1:35 AM 55.4 °F 48.2 °F 77% 29.71 in 10.0 mi NW 8.1 mph - N/A   Clear
1:55 AM 55.4 °F 48.2 °F 77% 29.72 in 10.0 mi NW 10.4 mph - N/A   Clear
2:15 AM 55.4 °F 46.4 °F 72% 29.72 in 10.0 mi NW 8.1 mph - N/A   Clear
2:35 AM 55.4 °F 46.4 °F 72% 29.73 in 10.0 mi NW 8.1 mph - N/A   Clear
2:55 AM 53.6 °F 46.4 °F 77% 29.74 in 10.0 mi WNW 8.1 mph - N/A   Clear
3:15 AM 53.6 °F 44.6 °F 72% 29.75 in 10.0 mi West 3.5 mph - N/A   Clear
3:35 AM 51.8 °F 46.4 °F 82% 29.75 in 10.0 mi WNW 4.6 mph - N/A   Clear
3:55 AM 51.8 °F 44.6 °F 76% 29.75 in 10.0 mi NW 6.9 mph - N/A   Clear
4:15 AM 51.8 °F 44.6 °F 76% 29.77 in 10.0 mi NNW 4.6 mph - N/A   Clear
4:35 AM 51.8 °F 44.6 °F 76% 29.78 in 10.0 mi West 3.5 mph - N/A   Clear
4:55 AM 50.0 °F 44.6 °F 82% 29.79 in 10.0 mi Calm Calm - N/A   Clear
5:15 AM 48.2 °F 42.8 °F 82% 29.80 in 10.0 mi West 4.6 mph - N/A   Clear
5:35 AM 50.0 °F 44.6 °F 82% 29.81 in 10.0 mi West 5.8 mph - N/A   Clear
5:55 AM 50.0 °F 44.6 °F 82% 29.82 in 10.0 mi NW 4.6 mph - N/A   Clear
6:15 AM 51.8 °F 42.8 °F 71% 29.83 in 10.0 mi WNW 4.6 mph - N/A   Clear
6:35 AM 51.8 °F 42.8 °F 71% 29.84 in 10.0 mi WNW 5.8 mph - N/A   Clear
6:55 AM 53.6 °F 42.8 °F 67% 29.84 in 10.0 mi NW 8.1 mph - N/A   Clear
7:15 AM 53.6 °F 42.8 °F 67% 29.85 in 10.0 mi NNW 5.8 mph - N/A   Clear
7:35 AM 55.4 °F 42.8 °F 63% 29.85 in 10.0 mi NW 5.8 mph - N/A   Clear
7:55 AM 55.4 °F 42.8 °F 63% 29.86 in 10.0 mi NW 8.1 mph - N/A   Clear
8:15 AM 57.2 °F 44.6 °F 63% 29.86 in 10.0 mi NNW 9.2 mph - N/A   Clear
8:35 AM 57.2 °F 44.6 °F 63% 29.86 in 10.0 mi NNW 6.9 mph - N/A   Clear
8:55 AM 59.0 °F 42.8 °F 55% 29.86 in 10.0 mi NW 11.5 mph - N/A   Clear
9:35 AM 60.8 °F 42.8 °F 52% 29.87 in 10.0 mi WNW 12.7 mph 18.4 mph N/A   Partly Cloudy
9:55 AM 62.6 °F 41.0 °F 45% 29.87 in 10.0 mi NW 10.4 mph 19.6 mph N/A   Partly Cloudy
10:15 AM 62.6 °F 42.8 °F 48% 29.87 in 10.0 mi NW 11.5 mph 16.1 mph N/A   Scattered Clouds
10:35 AM 62.6 °F 42.8 °F 48% 29.87 in 10.0 mi West 8.1 mph - N/A   Mostly Cloudy
10:55 AM 62.6 °F 41.0 °F 45% 29.88 in 10.0 mi NW 11.5 mph 18.4 mph N/A   Mostly Cloudy
11:15 AM 62.6 °F 41.0 °F 45% - 10.0 mi NW 9.2 mph 18.4 mph N/A   Mostly Cloudy
11:35 AM 62.6 °F 42.8 °F 48% 29.87 in 10.0 mi WNW 6.9 mph 16.1 mph N/A   Scattered Clouds
11:55 AM 64.4 °F 42.8 °F 45% - 10.0 mi WNW 5.8 mph - N/A   Scattered Clouds
12:15 PM 64.4 °F 42.8 °F 45% - 10.0 mi WNW 8.1 mph - N/A   Scattered Clouds
12:35 PM 66.2 °F 42.8 °F 43% 29.87 in 10.0 mi West 10.4 mph 19.6 mph N/A   Mostly Cloudy
12:55 PM 66.2 °F 41.0 °F 40% 29.87 in 10.0 mi West 13.8 mph - N/A   Mostly Cloudy
1:15 PM 66.2 °F 39.2 °F 37% 29.87 in 10.0 mi WNW 9.2 mph 18.4 mph N/A   Scattered Clouds
1:35 PM 68.0 °F 41.0 °F 37% 29.87 in 10.0 mi NW 4.6 mph 18.4 mph N/A   Partly Cloudy
1:55 PM 68.0 °F 41.0 °F 37% 29.87 in 10.0 mi NW 9.2 mph - N/A   Clear
2:15 PM 69.8 °F 41.0 °F 35% 29.87 in 10.0 mi WNW 9.2 mph 20.7 mph N/A   Clear
2:35 PM 69.8 °F 41.0 °F 35% - 10.0 mi WNW 6.9 mph 17.3 mph N/A   Partly Cloudy
2:55 PM 69.8 °F 39.2 °F 33% 29.87 in 10.0 mi West 6.9 mph - N/A   Partly Cloudy
3:15 PM 69.8 °F 39.2 °F 33% 29.87 in 10.0 mi WNW 11.5 mph - N/A   Clear
3:35 PM 69.8 °F 39.2 °F 33% 29.87 in 10.0 mi West 10.4 mph - N/A   Clear
3:55 PM 69.8 °F 39.2 °F 33% 29.87 in 10.0 mi West 9.2 mph - N/A   Partly Cloudy
4:15 PM 71.6 °F 42.8 °F 35% - 10.0 mi WNW 11.5 mph 17.3 mph N/A   Clear
4:35 PM 69.8 °F 41.0 °F 35% 29.87 in 10.0 mi WNW 3.5 mph - N/A   Partly Cloudy
4:55 PM 69.8 °F 42.8 °F 38% 29.86 in 10.0 mi WNW 8.1 mph - N/A   Clear
5:15 PM 71.6 °F 42.8 °F 35% - 10.0 mi WNW 5.8 mph - N/A   Clear
5:35 PM 71.6 °F 41.0 °F 33% - 10.0 mi NW 8.1 mph - N/A   Clear
5:55 PM 71.6 °F 42.8 °F 35% 29.86 in 10.0 mi NW 6.9 mph - N/A   Clear
6:15 PM 69.8 °F 41.0 °F 35% 29.86 in 10.0 mi NNW 5.8 mph - N/A   Clear
6:35 PM 69.8 °F 42.8 °F 38% 29.87 in 10.0 mi NW 5.8 mph - N/A   Clear
6:55 PM 69.8 °F 42.8 °F 38% 29.88 in 10.0 mi NW 5.8 mph - N/A   Clear
7:15 PM 68.0 °F 42.8 °F 40% 29.88 in 10.0 mi NW 4.6 mph - N/A   Clear
7:35 PM 66.2 °F 44.6 °F 46% 29.88 in 10.0 mi NNW 4.6 mph - N/A   Clear
7:55 PM 64.4 °F 44.6 °F 49% 29.89 in 10.0 mi NNW 5.8 mph - N/A   Clear
8:15 PM 62.6 °F 46.4 °F 55% 29.89 in 10.0 mi NNW 5.8 mph - N/A   Clear
8:35 PM 60.8 °F 44.6 °F 55% 29.90 in 10.0 mi North 3.5 mph - N/A   Clear
8:55 PM 57.2 °F 48.2 °F 72% 29.91 in 10.0 mi Calm Calm - N/A   Clear
9:15 PM 55.4 °F 48.2 °F 77% - 10.0 mi Calm Calm - N/A   Clear
9:35 PM 53.6 °F 46.4 °F 77% 29.92 in 10.0 mi Calm Calm - N/A   Clear
9:55 PM 53.6 °F 46.4 °F 77% - 10.0 mi South 3.5 mph - N/A   Clear
10:15 PM 51.8 °F 46.4 °F 82% - 10.0 mi West 3.5 mph - N/A   Clear
10:35 PM 51.8 °F 46.4 °F 82% 29.93 in 10.0 mi South 5.8 mph - N/A   Clear
10:55 PM 51.8 °F 46.4 °F 82% 29.94 in 10.0 mi SW 3.5 mph - N/A   Clear
11:15 PM 51.8 °F 46.4 °F 82% 29.94 in 10.0 mi Calm Calm - N/A   Clear
11:35 PM 51.8 °F 44.6 °F 76% 29.94 in 10.0 mi Calm Calm - N/A   Clear
11:55 PM 48.2 °F 44.6 °F 87% 29.95 in 10.0 mi SW 3.5 mph - N/A   Clear